EWG24C EDXW-EDDK

Flight info

Callsign EWG24C
Flight time N/A
Altitude 32000
Route OLDIP1B/32 OLDIP DCT BADOS DCT OMWEG Y348 ELSOB DCT LARBU Z189 RUNER/N0372F240 T858 KOPAG
Aircraft A320/M-SDE3FGHIRWY/LB1

Departure

Time N/A
Airport Westerland Sylt Airport (EDXW)

Arrival

Time 2026-04-25 23:18
Airport Cologne Bonn Airport (EDDK)
Time Latitude Longitude Altitude Speed Heading
2026-04-25 22:40 53.67539 9.54651 34094 ft 504 kts 160°
2026-04-25 22:40 53.61174 9.56575 34134 ft 481 kts 184°
2026-04-25 22:41 53.51151 9.54641 34166 ft 467 kts 192°
2026-04-25 22:41 53.44705 9.53256 34166 ft 467 kts 192°
2026-04-25 22:42 53.38262 9.51850 34159 ft 466 kts 192°
2026-04-25 22:42 53.31832 9.50409 34145 ft 466 kts 192°
2026-04-25 22:43 53.25416 9.48965 34155 ft 465 kts 192°
2026-04-25 22:43 53.19018 9.47534 34159 ft 464 kts 192°
2026-04-25 22:44 53.12624 9.46102 34157 ft 464 kts 192°
2026-04-25 22:44 53.06232 9.44667 34154 ft 463 kts 192°
2026-04-25 22:45 52.99834 9.43256 34151 ft 463 kts 192°
2026-04-25 22:45 52.93451 9.41859 34149 ft 463 kts 192°
2026-04-25 22:46 52.87250 9.39479 34114 ft 454 kts 204°
2026-04-25 22:46 52.81279 9.36076 34134 ft 453 kts 204°
2026-04-25 22:47 52.75321 9.32667 34142 ft 453 kts 204°
2026-04-25 22:47 52.69371 9.29267 34144 ft 452 kts 204°
2026-04-25 22:48 52.63426 9.25872 34127 ft 452 kts 204°
2026-04-25 22:48 52.57486 9.22501 34154 ft 451 kts 204°
2026-04-25 22:49 52.51528 9.19133 34162 ft 450 kts 204°
2026-04-25 22:49 52.45636 9.15808 34163 ft 449 kts 204°
2026-04-25 22:50 52.39726 9.12491 34138 ft 449 kts 203°
2026-04-25 22:50 52.33813 9.09187 34148 ft 448 kts 203°
2026-04-25 22:51 52.27923 9.05892 34151 ft 447 kts 203°
2026-04-25 22:51 52.22037 9.02603 34150 ft 447 kts 203°
2026-04-25 22:52 52.16154 8.99331 34138 ft 447 kts 203°
2026-04-25 22:52 52.13206 8.97694 33883 ft 447 kts 203°
2026-04-25 22:52 52.11255 8.96614 33714 ft 447 kts 202°
2026-04-25 22:53 52.07324 8.94446 33196 ft 444 kts 203°
2026-04-25 22:53 52.04405 8.92837 32623 ft 442 kts 203°
2026-04-25 22:53 52.01505 8.91243 32062 ft 439 kts 203°
2026-04-25 22:53 51.98625 8.89654 31515 ft 436 kts 203°
2026-04-25 22:54 51.95758 8.88074 30954 ft 433 kts 203°
2026-04-25 22:54 51.92914 8.86507 30424 ft 430 kts 203°
2026-04-25 22:54 51.90093 8.84934 29868 ft 427 kts 204°
2026-04-25 22:54 51.87308 8.83373 29364 ft 421 kts 204°
2026-04-25 22:55 51.84570 8.81834 28867 ft 416 kts 204°
2026-04-25 22:55 51.81950 8.79871 27897 ft 414 kts 218°
2026-04-25 22:55 51.79716 8.77040 27433 ft 403 kts 225°
2026-04-25 22:55 51.77548 8.74136 26978 ft 396 kts 224°
2026-04-25 22:56 51.75467 8.71348 26534 ft 391 kts 224°
2026-04-25 22:56 51.73390 8.68556 26076 ft 387 kts 224°
2026-04-25 22:56 51.71313 8.65752 25610 ft 382 kts 224°
2026-04-25 22:56 51.69313 8.63047 25153 ft 379 kts 224°
2026-04-25 22:57 51.67302 8.60331 24683 ft 376 kts 224°
2026-04-25 22:57 51.65301 8.57628 24194 ft 374 kts 224°
2026-04-25 22:57 51.63306 8.54965 23714 ft 372 kts 224°
2026-04-25 22:57 51.61307 8.52324 23177 ft 370 kts 223°
2026-04-25 22:58 51.59323 8.49721 22692 ft 367 kts 223°
2026-04-25 22:58 51.57347 8.47140 22216 ft 365 kts 223°
2026-04-25 22:58 51.55378 8.44570 21751 ft 363 kts 223°
2026-04-25 22:58 51.53408 8.41998 21361 ft 360 kts 223°
2026-04-25 22:59 51.51492 8.39494 20983 ft 358 kts 223°
2026-04-25 22:59 51.49568 8.36977 20591 ft 356 kts 223°
2026-04-25 22:59 51.47651 8.34472 20215 ft 354 kts 223°
2026-04-25 22:59 51.45748 8.31983 19848 ft 353 kts 223°
2026-04-25 23:00 51.43850 8.29503 19478 ft 351 kts 223°
2026-04-25 23:00 51.41938 8.27008 19123 ft 349 kts 223°
2026-04-25 23:00 51.40080 8.24592 18778 ft 347 kts 223°
2026-04-25 23:00 51.38184 8.22135 18417 ft 346 kts 223°
2026-04-25 23:01 51.36343 8.19748 18021 ft 344 kts 223°
2026-04-25 23:01 51.34491 8.17349 17622 ft 342 kts 223°
2026-04-25 23:01 51.32648 8.14966 17231 ft 340 kts 223°
2026-04-25 23:01 51.30789 8.12564 16828 ft 338 kts 223°
2026-04-25 23:02 51.28964 8.10205 16429 ft 336 kts 223°
2026-04-25 23:02 51.26963 8.08279 16048 ft 339 kts 206°
2026-04-25 23:02 51.24764 8.06918 15667 ft 338 kts 204°
2026-04-25 23:02 51.22560 8.05624 15301 ft 337 kts 204°
2026-04-25 23:03 51.20369 8.04344 14938 ft 335 kts 204°
2026-04-25 23:03 51.18185 8.03070 14579 ft 333 kts 204°
2026-04-25 23:03 51.16011 8.01805 14219 ft 331 kts 204°
2026-04-25 23:03 51.13878 8.00566 13863 ft 330 kts 204°
2026-04-25 23:04 51.11700 7.99303 13448 ft 328 kts 204°
2026-04-25 23:04 51.10283 7.98482 13199 ft 327 kts 204°
2026-04-25 23:04 51.07465 7.96849 12686 ft 325 kts 204°
2026-04-25 23:04 51.05353 7.95599 12289 ft 322 kts 204°
2026-04-25 23:05 51.03277 7.94289 11906 ft 320 kts 204°
2026-04-25 23:05 51.01223 7.92974 11531 ft 317 kts 204°
2026-04-25 23:05 50.99187 7.91666 11165 ft 315 kts 204°
2026-04-25 23:05 50.97161 7.90369 10811 ft 312 kts 204°
2026-04-25 23:06 50.95127 7.89069 10466 ft 309 kts 204°
2026-04-25 23:06 50.93142 7.87801 10131 ft 306 kts 204°
2026-04-25 23:06 50.91218 7.86570 9766 ft 296 kts 203°
2026-04-25 23:06 50.89332 7.85358 9401 ft 291 kts 204°
2026-04-25 23:07 50.87511 7.84035 9043 ft 287 kts 216°
2026-04-25 23:07 50.86135 7.81780 8669 ft 278 kts 240°
2026-04-25 23:07 50.85163 7.79207 8315 ft 268 kts 243°
2026-04-25 23:07 50.84258 7.76668 7961 ft 262 kts 244°
2026-04-25 23:08 50.83375 7.74187 7592 ft 257 kts 244°
2026-04-25 23:08 50.82502 7.71748 7267 ft 252 kts 244°
2026-04-25 23:08 50.81642 7.69366 6929 ft 247 kts 244°
2026-04-25 23:08 50.80794 7.67024 6579 ft 243 kts 244°
2026-04-25 23:09 50.79957 7.64726 6232 ft 240 kts 243°
2026-04-25 23:09 50.79132 7.62456 5872 ft 237 kts 243°
2026-04-25 23:09 50.78316 7.60213 5515 ft 234 kts 243°
2026-04-25 23:09 50.77511 7.57988 5166 ft 232 kts 243°
2026-04-25 23:10 50.76719 7.55785 4798 ft 230 kts 243°
2026-04-25 23:10 50.75933 7.53594 4440 ft 228 kts 244°
2026-04-25 23:10 50.75159 7.51453 4149 ft 222 kts 244°
2026-04-25 23:10 50.74411 7.49354 3842 ft 218 kts 244°
2026-04-25 23:11 50.73686 7.47271 3531 ft 215 kts 244°
2026-04-25 23:11 50.72981 7.45229 3286 ft 209 kts 244°
2026-04-25 23:11 50.72287 7.43278 3079 ft 201 kts 243°
2026-04-25 23:11 50.71846 7.41312 2988 ft 180 kts 272°
2026-04-25 23:12 50.71951 7.39390 3034 ft 174 kts 282°
2026-04-25 23:12 50.72151 7.37537 3013 ft 171 kts 283°
2026-04-25 23:12 50.72464 7.35744 2995 ft 169 kts 300°
2026-04-25 23:12 50.73185 7.34331 3008 ft 167 kts 319°
2026-04-25 23:13 50.74053 7.33091 3004 ft 167 kts 319°
2026-04-25 23:13 50.74899 7.31878 3001 ft 163 kts 319°
2026-04-25 23:13 50.75714 7.30707 2885 ft 156 kts 319°
2026-04-25 23:13 50.76517 7.29553 2710 ft 156 kts 318°
2026-04-25 23:14 50.77326 7.28389 2509 ft 155 kts 318°
2026-04-25 23:14 50.78126 7.27238 2303 ft 155 kts 318°
2026-04-25 23:14 50.78920 7.26094 2104 ft 154 kts 318°
2026-04-25 23:14 50.79441 7.25344 1961 ft 150 kts 319°
2026-04-25 23:15 50.80242 7.24191 1725 ft 139 kts 318°
2026-04-25 23:15 50.80451 7.23889 1651 ft 137 kts 318°
2026-04-25 23:15 50.80735 7.23481 1564 ft 136 kts 319°
2026-04-25 23:15 50.81109 7.22932 1474 ft 136 kts 318°
2026-04-25 23:16 50.81570 7.22253 1366 ft 140 kts 318°
2026-04-25 23:16 50.82711 7.20606 1050 ft 138 kts 319°
2026-04-25 23:16 50.83193 7.19919 929 ft 197 kts 319°
2026-04-25 23:16 50.84558 7.17959 624 ft 140 kts 318°
2026-04-25 23:17 50.85754 7.16229 322 ft 139 kts 319°
2026-04-25 23:17 50.86344 7.15375 288 ft 112 kts 317°
2026-04-25 23:17 50.86571 7.15047 276 ft 91 kts 317°
2026-04-25 23:17 50.86703 7.14858 273 ft 89 kts 317°
2026-04-25 23:18 50.87017 7.14401 255 ft 79 kts 317°
2026-04-25 23:18 50.87400 7.13850 241 ft 67 kts 318°
2026-04-25 23:18 50.87571 7.13604 239 ft 56 kts 316°
2026-04-25 23:18 50.87772 7.13308 239 ft 43 kts 318°
2026-04-25 23:19 50.87832 7.13039 238 ft 19 kts 257°
2026-04-25 23:19 50.87787 7.12745 232 ft 3 kts 256°
2026-04-25 23:19 50.87935 7.12588 232 ft 15 kts 325°
2026-04-25 23:20 50.88035 7.12443 232 ft 16 kts 317°
2026-04-25 23:20 50.88082 7.12361 232 ft 12 kts 309°
2026-04-25 23:20 50.88128 7.12211 232 ft 12 kts 307°
2026-04-25 23:20 50.88138 7.12131 232 ft 6 kts 231°
2026-04-25 23:21 50.88114 7.12103 232 ft 2 kts 214°
2026-04-25 23:21 50.88108 7.12096 232 ft 1 kts 214°
2026-04-25 23:21 50.88105 7.12093 232 ft 0 kts 215°